Weather History for KLWB - April, 2013

Change the Weather History Date:

Monday, April 22, 2013

  Actual Average Record
Temperature  
Mean Temperature 42 °F 52 °F  
Max Temperature 53 °F 65 °F 85 °F (1985)
Min Temperature 32 °F 39 °F 28 °F (1986)
Degree Days  
Heating Degree Days 22    
Month to date heating degree days  
Since 1 July heating degree days  
Cooling Degree Days 0    
Month to date cooling degree days  
Year to date cooling degree days  
Moisture  
Dew Point 21 °F    
Average Humidity 45    
Maximum Humidity 69    
Minimum Humidity 19    
Precipitation  
Precipitation 0.00 in - 1.35 in (1972)
Snow  
Snow 0.00 in - - ()
Month to date snowfall  
Since 1 July snowfall  
Snow Depth -    
Sea Level Pressure  
Sea Level Pressure 30.37 in    
Wind  
Wind Speed 5 mph (ESE)    
Max Wind Speed 9 mph    
Max Gust Speed 16 mph    
Visibility 10 miles    
Events      
T = Trace of Precipitation, MM = Missing Value Source: NWS Daily Summary

Daily Weather History Graph

Daily Weather History Graph

Search for Another Location

Airport or City:

Trip Planner

Search our weather history database for the weather conditions in past years. The results will help you decide how hot, cold, wet, or windy it might be!

Date:

Astronomy

Apr. 22, 2013 Rise Set
Actual Time 6:36 AM EDT 8:04 PM EDT
Civil Twilight 6:08 AM EDT 8:31 PM EDT
Nautical Twilight 5:35 AM EDT 9:05 PM EDT
Astronomical Twilight 5:01 AM EDT 9:40 PM EDT
Moon 4:54 PM EDT (4/22) 4:26 AM EDT (4/22)
Length of Visible Light 14h 22m
Length of Day
13h 27m
Waxing Gibbous, 87% of the Moon is Illuminated
Apr 22
Waxing Gibbous
Apr 25
Full
May 2
Last Quarter
May 9
New
May 18
First Quarter

Hourly Weather History & Observations

Time (EDT) Temp. Windchill Dew Point Humidity Pressure Visibility Wind Dir Wind Speed Gust Speed Precip Events Conditions
12:15 AM 39.2 °F 35.0 °F 24.8 °F 56% 30.45 in 10.0 mi SE 5.8 mph - N/A   Clear
12:35 AM 39.2 °F 35.9 °F 24.8 °F 56% 30.45 in 10.0 mi SE 4.6 mph - N/A   Clear
12:55 AM 39.2 °F 34.2 °F 24.8 °F 56% 30.44 in 10.0 mi SE 6.9 mph - N/A   Clear
1:15 AM 37.4 °F 32.8 °F 24.8 °F 60% 30.44 in 10.0 mi SE 5.8 mph - N/A   Clear
1:35 AM 37.4 °F - 23.0 °F 56% 30.44 in 10.0 mi Calm Calm - N/A   Clear
1:55 AM 37.4 °F - 23.0 °F 56% 30.44 in 10.0 mi Calm Calm - N/A   Clear
2:15 AM 37.4 °F 32.1 °F 23.0 °F 56% 30.43 in 10.0 mi SE 6.9 mph - N/A   Clear
2:35 AM 37.4 °F 32.8 °F 23.0 °F 56% 30.43 in 10.0 mi East 5.8 mph - N/A   Clear
2:55 AM 37.4 °F - 23.0 °F 56% 30.43 in 10.0 mi Calm Calm - N/A   Clear
3:15 AM 35.6 °F 30.7 °F 23.0 °F 60% 30.43 in 10.0 mi SSE 5.8 mph - N/A   Clear
3:35 AM 35.6 °F 30.7 °F 23.0 °F 60% 30.42 in 10.0 mi ESE 5.8 mph - N/A   Clear
3:55 AM 35.6 °F 31.7 °F 23.0 °F 60% 30.42 in 10.0 mi East 4.6 mph - N/A   Clear
4:15 AM 35.6 °F - 23.0 °F 60% 30.42 in 10.0 mi Calm Calm - N/A   Clear
4:35 AM 35.6 °F 31.7 °F 23.0 °F 60% 30.42 in 10.0 mi ESE 4.6 mph - N/A   Clear
4:55 AM 33.8 °F - 23.0 °F 65% 30.42 in 10.0 mi Calm Calm - N/A   Clear
5:15 AM 33.8 °F - 23.0 °F 65% 30.42 in 10.0 mi Calm Calm - N/A   Clear
5:35 AM 33.8 °F 30.8 °F 23.0 °F 65% 30.42 in 10.0 mi ENE 3.5 mph - N/A   Clear
5:55 AM 33.8 °F 28.6 °F 23.0 °F 65% 30.42 in 10.0 mi ESE 5.8 mph - N/A   Clear
6:15 AM 32.0 °F - 23.0 °F 69% 30.42 in 10.0 mi Calm Calm - N/A   Clear
6:35 AM 32.0 °F 27.5 °F 23.0 °F 69% 30.42 in 10.0 mi ENE 4.6 mph - N/A   Clear
6:55 AM 32.0 °F - 23.0 °F 69% 30.43 in 10.0 mi Calm Calm - N/A   Clear
7:15 AM 32.0 °F 28.7 °F 23.0 °F 69% 30.43 in 10.0 mi NE 3.5 mph - N/A   Clear
7:35 AM 32.0 °F - 23.0 °F 69% 30.43 in 10.0 mi Calm Calm - N/A   Clear
7:55 AM 33.8 °F 30.8 °F 23.0 °F 65% 30.44 in 10.0 mi NE 3.5 mph - N/A   Clear
8:15 AM 33.8 °F 30.8 °F 23.0 °F 65% 30.44 in 10.0 mi NNE 3.5 mph - N/A   Clear
8:35 AM 35.6 °F 32.8 °F 23.0 °F 60% 30.45 in 10.0 mi East 3.5 mph - N/A   Clear
8:55 AM 35.6 °F 29.2 °F 23.0 °F 60% 30.45 in 10.0 mi East 8.1 mph - N/A   Clear
9:15 AM 37.4 °F 30.8 °F 23.0 °F 56% 30.45 in 10.0 mi East 9.2 mph - N/A   Clear
9:35 AM 37.4 °F 32.8 °F 23.0 °F 56% 30.44 in 10.0 mi East 5.8 mph - N/A   Clear
9:55 AM 39.2 °F 35.9 °F 23.0 °F 52% 30.44 in 10.0 mi SSE 4.6 mph - N/A   Clear
10:15 AM 41.0 °F 39.0 °F 23.0 °F 49% 30.43 in 10.0 mi SSE 3.5 mph - N/A   Clear
10:35 AM 41.0 °F 36.4 °F 21.2 °F 45% 30.44 in 10.0 mi East 6.9 mph - N/A   Clear
10:55 AM 42.8 °F 39.3 °F 21.2 °F 42% 30.43 in 10.0 mi ESE 5.8 mph - N/A   Clear
11:15 AM 42.8 °F 38.6 °F 23.0 °F 46% 30.42 in 10.0 mi SE 6.9 mph - N/A   Clear
11:35 AM 42.8 °F 38.6 °F 23.0 °F 46% 30.42 in 10.0 mi East 6.9 mph - N/A   Clear
11:55 AM 44.6 °F 41.4 °F 23.0 °F 43% 30.41 in 10.0 mi South 5.8 mph - N/A   Clear
12:15 PM 46.4 °F 41.9 °F 23.0 °F 40% 30.40 in 10.0 mi East 9.2 mph - N/A   Clear
12:35 PM 46.4 °F 44.3 °F 23.0 °F 40% 30.38 in 10.0 mi SE 4.6 mph - N/A   Clear
12:55 PM 46.4 °F 44.3 °F 23.0 °F 40% 30.38 in 10.0 mi East 4.6 mph - N/A   Clear
1:15 PM 50.0 °F - 23.0 °F 35% 30.36 in 10.0 mi Calm Calm - N/A   Clear
1:35 PM 50.0 °F - 23.0 °F 35% 30.36 in 10.0 mi SE 8.1 mph - N/A   Clear
1:55 PM 50.0 °F - 23.0 °F 35% 30.35 in 10.0 mi ESE 5.8 mph - N/A   Clear
2:15 PM 51.8 °F - 23.0 °F 33% 30.34 in 10.0 mi South 6.9 mph - N/A   Clear
2:35 PM 51.8 °F - 23.0 °F 33% 30.33 in 10.0 mi SE 5.8 mph - N/A   Clear
2:55 PM 53.6 °F - 23.0 °F 30% 30.33 in 10.0 mi ESE 5.8 mph - N/A   Clear
3:15 PM 53.6 °F - 21.2 °F 28% 30.32 in 10.0 mi East 6.9 mph - N/A   Clear
3:35 PM 53.6 °F - 19.4 °F 26% 30.32 in 10.0 mi SSE 8.1 mph 16.1 mph N/A   Clear
3:55 PM 53.6 °F - 19.4 °F 26% 30.30 in 10.0 mi ESE 5.8 mph - N/A   Clear
4:15 PM 53.6 °F - 15.8 °F 22% 30.29 in 10.0 mi ESE 9.2 mph 16.1 mph N/A   Clear
4:35 PM 53.6 °F - 17.6 °F 24% 30.29 in 10.0 mi East 3.5 mph - N/A   Clear
4:55 PM 53.6 °F - 12.2 °F 19% 30.29 in 10.0 mi South 6.9 mph - N/A   Clear
5:15 PM 53.6 °F - 14.0 °F 21% 30.28 in 10.0 mi ESE 8.1 mph - N/A   Clear
5:35 PM 53.6 °F - 15.8 °F 22% 30.28 in 10.0 mi East 9.2 mph - N/A   Clear
5:55 PM 53.6 °F - 15.8 °F 22% 30.28 in 10.0 mi East 8.1 mph - N/A   Clear
6:15 PM 53.6 °F - 15.8 °F 22% 30.28 in 10.0 mi ESE 5.8 mph - N/A   Clear
6:35 PM 53.6 °F - 17.6 °F 24% 30.28 in 10.0 mi SE 5.8 mph - N/A   Clear
6:55 PM 51.8 °F - 17.6 °F 26% 30.28 in 10.0 mi ESE 6.9 mph - N/A   Clear
7:15 PM 51.8 °F - 19.4 °F 28% 30.28 in 10.0 mi ESE 6.9 mph - N/A   Clear
7:35 PM 50.0 °F - 19.4 °F 30% 30.28 in 10.0 mi ESE 6.9 mph - N/A   Clear
7:55 PM 50.0 °F - 19.4 °F 30% 30.29 in 10.0 mi ESE 5.8 mph - N/A   Clear
8:15 PM 48.2 °F - 19.4 °F 32% 30.29 in 10.0 mi ESE 6.9 mph - N/A   Clear
8:35 PM 46.4 °F 43.5 °F 19.4 °F 34% 30.29 in 10.0 mi SE 5.8 mph - N/A   Clear
8:55 PM 46.4 °F 44.3 °F 19.4 °F 34% 30.29 in 10.0 mi ESE 4.6 mph - N/A   Clear
9:15 PM 46.4 °F 45.2 °F 17.6 °F 32% 30.30 in 10.0 mi ESE 3.5 mph - N/A   Clear
9:35 PM 44.6 °F 43.1 °F 17.6 °F 34% 30.30 in 10.0 mi SE 3.5 mph - N/A   Clear
9:55 PM 44.6 °F 42.2 °F 15.8 °F 31% 30.31 in 10.0 mi ESE 4.6 mph - N/A   Clear
10:15 PM 44.6 °F - 17.6 °F 34% 30.32 in 10.0 mi Calm Calm - N/A   Clear
10:35 PM 42.8 °F 41.1 °F 19.4 °F 39% 30.31 in 10.0 mi ESE 3.5 mph - N/A   Clear
10:55 PM 42.8 °F 41.1 °F 19.4 °F 39% 30.31 in 10.0 mi East 3.5 mph - N/A   Clear
11:15 PM 42.8 °F 40.1 °F 21.2 °F 42% 30.31 in 10.0 mi ESE 4.6 mph - N/A   Clear
11:35 PM 42.8 °F 40.1 °F 21.2 °F 42% 30.31 in 10.0 mi ESE 4.6 mph - N/A   Clear
11:55 PM 41.0 °F 39.0 °F 23.0 °F 49% 30.30 in 10.0 mi ESE 3.5 mph - N/A   Clear